Location: Garshuizen
(53.3675°N, 6.7248°E)
Time: 08:27:32
(UTC+00:00)

USA 234 - Pass Details

Date: 15 May 2026
Orbit: 1102 x 1106 km, 123.0° (Epoch: 4 January)

Event Time Altitude Azimuth Distance (km) Brightness Sun altitude
Rises 22:38:56 0° 61° (ENE) 3,927 6.4 -16.8°
Reaches altitude 10° 22:41:47 10° 72° (ENE) 2,966 5.6 -16.9°
Maximum altitude 22:47:27 30° 132° (SE) 1,846 4.0 -17.0°
Enters shadow 22:49:36 25° 164° (SSE) 2,046 4.1 -17.1°
